Address 0xa9eb7ad908107e13757ca837435ec713fb55589b 2

 
Txn Hash
Block
From
To
Value [Txn Fee]
0xc84e3dbafe4406c972ce8940d88a58893ded9b5ea0490d930b01180fe80e7dda97670492021-08-05 10:48:298 mins agoSwamp Finance: DeployerOUT 0xc0dda6d4dd7b38e99452fa99b6090637353e40640 BNB0.00819279
0x3a3d19545414caad66ce87b4eb4a5fe8c602501f2eaad93c52cdb000ec25a1ba97670172021-08-05 10:46:5310 mins agoSwamp Finance: DeployerOUT 0xc0dda6d4dd7b38e99452fa99b6090637353e40640 BNB0.00692812
0xfb41fd97388772a854b78e0168a5a323a13b8c2f4ba4c5f1cd7e8eb1f349da9397668262021-08-05 10:37:0120 mins agoSwamp Finance: DeployerOUT 0xc0dda6d4dd7b38e99452fa99b6090637353e40640 BNB0.00795471
0x940ee241573089a3d162ab4858fd433dd558b7f3d35079d6b50a12c11710686b97668172021-08-05 10:36:3220 mins agoSwamp Finance: DeployerOUT 0xc0dda6d4dd7b38e99452fa99b6090637353e40640 BNB0.00683343
0x748ec6505558d8270bab55f4caefe4f31956845677321512d5057161a40fd16497667912021-08-05 10:35:0022 mins agoSwamp Finance: DeployerOUT 0xc0dda6d4dd7b38e99452fa99b6090637353e40640 BNB0.01202113
0x7234fc246903423bf0f994aee7e098a67497202ccc2f4052972e7164ea1ed7a497667832021-08-05 10:34:3022 mins agoSwamp Finance: DeployerOUT 0xc0dda6d4dd7b38e99452fa99b6090637353e40640 BNB0.00750882
0x50e1e105660398311f72656f46a353be6ae41760fc47d8d9930180cc4e89b89297666542021-08-05 10:27:4929 mins agoSwamp Finance: DeployerOUT 0xc0dda6d4dd7b38e99452fa99b6090637353e40640 BNB0.00668409
0x326cbefa31a9580ebfcf61c87d264d291e6e9c0dca67cee114ace6bcfca80b9697666432021-08-05 10:27:1629 mins agoSwamp Finance: DeployerOUT 0xc0dda6d4dd7b38e99452fa99b6090637353e40640 BNB0.01011409
0xfcacfa145caafa04a11b4d99478731da683d4e05bf7edc48fe5f17e9149501af97665492021-08-05 10:22:3434 mins agoSwamp Finance: DeployerOUT 0xc0dda6d4dd7b38e99452fa99b6090637353e40640 BNB0.00790556
0x35421e3acd309f39b76ced17667eec0008644b360f1bbe8faae36335934623d497665392021-08-05 10:22:0435 mins agoSwamp Finance: DeployerOUT 0xc0dda6d4dd7b38e99452fa99b6090637353e40640 BNB0.00822151
0xbdb031e782d6d5e265db82941cd072c9a60ec4e547068efc660f17ce031775ba97665292021-08-05 10:21:3435 mins agoSwamp Finance: DeployerOUT 0xc0dda6d4dd7b38e99452fa99b6090637353e40640 BNB0.00749792
0x6a26cff82282efef473f42ea8dd50f32006e0f59d0948ce9abcf6b85a3dfb75497663752021-08-05 10:13:5243 mins agoSwamp Finance: DeployerOUT 0xc0dda6d4dd7b38e99452fa99b6090637353e40640 BNB0.01408904
0x595328fc803026a054912b393fcd27b8d3b88fa119adf893f2446f78b60e82e997663032021-08-05 10:10:1646 mins agoSwamp Finance: DeployerOUT 0xc0dda6d4dd7b38e99452fa99b6090637353e40640 BNB0.00594098
0xd624b3fe4f14094dd89c75489385bb2c2438cf5f5d84e3cc7e22d3868ccf9b9c97662542021-08-05 10:07:4749 mins agoSwamp Finance: DeployerOUT 0xc0dda6d4dd7b38e99452fa99b6090637353e40640 BNB0.01204206
0x4cddcfd7c53bb53d09ed9abb3b104b80936e1d83a6e8b587b77e392fe36c729797662442021-08-05 10:07:1250 mins agoSwamp Finance: DeployerOUT 0xc0dda6d4dd7b38e99452fa99b6090637353e40640 BNB0.00731276
0x3b243b12051d78ea7a13b0efb9aab3f7652d941461cc35b3e190f041eb28d69197661992021-08-05 10:04:4052 mins agoSwamp Finance: DeployerOUT 0xc0dda6d4dd7b38e99452fa99b6090637353e40640 BNB0.00616452
0xb9c568cda572e37f5929128439f401f8bdf63eebe3011f6a4c21c587cf4350be97661892021-08-05 10:04:0553 mins agoSwamp Finance: DeployerOUT 0xc0dda6d4dd7b38e99452fa99b6090637353e40640 BNB0.00617305
0xa259083ded183eb31c49918520a25bf0ef64660b29b0a1685e4799ff252c9a3097661432021-08-05 10:01:2955 mins agoSwamp Finance: DeployerOUT 0xc0dda6d4dd7b38e99452fa99b6090637353e40640 BNB0.00660295
0xd9116a75ead7318b75c1155653eca9bd99c7d2c450fb079399ac7f986c4cf80797661122021-08-05 9:59:5657 mins agoSwamp Finance: DeployerOUT 0xc0dda6d4dd7b38e99452fa99b6090637353e40640 BNB0.00800219
0x39552a463de34693afab7043fe3d13ebfd6b10e9db9d45159448bdb40706e28297660822021-08-05 9:58:2658 mins agoSwamp Finance: DeployerOUT 0xc0dda6d4dd7b38e99452fa99b6090637353e40640 BNB0.01349216
0x639a2566fe907cc6bb28e8af8ff46fb75f06346d4a794be9a1f0b0785e9a347b97660712021-08-05 9:57:5359 mins agoSwamp Finance: DeployerOUT 0xc0dda6d4dd7b38e99452fa99b6090637353e40640 BNB0.00751399
0x12b3c09d0f436a123302769e1ffbf038b9273d9de158a7bc25a79a0dcd20b7e997660612021-08-05 9:57:2359 mins agoSwamp Finance: DeployerOUT 0xc0dda6d4dd7b38e99452fa99b6090637353e40640 BNB0.00603967
0x4a2ca03a4522e8ed3ce34b7556f98ab424fcb313f5477847b9b8eb3734f542f797659062021-08-05 9:49:381 hr 7 mins agoSwamp Finance: DeployerOUT 0xc0dda6d4dd7b38e99452fa99b6090637353e40640 BNB0.006595
0x03a1ba99017c5999d075d916898bc9b777f58f844173679867d4af179b08c45a97658552021-08-05 9:47:051 hr 10 mins agoSwamp Finance: DeployerOUT 0xc0dda6d4dd7b38e99452fa99b6090637353e40640 BNB0.00848156
0x11afcf03518b00c3aebb510192cb9e9265ce83942fd94037244b1dc7e3b441ba97658242021-08-05 9:45:321 hr 11 mins agoSwamp Finance: DeployerOUT 0xc0dda6d4dd7b38e99452fa99b6090637353e40640 BNB0.00516202
[ Download CSV Export 

OVERVIEW

The deployer address for Swamp Finance's contract.

Parent Txn Hash Block From To Value
Loading

Contract Name:
0 BNB

Compiler Version
0

Optimization Enabled:
0 BNB

Other Settings:
-NA-
Block Transaction Gas Used Reward
Age Block Fee Address BC Fee Address Voting Power Jailed Incoming
Block Uncle Number Difficulty Gas Used Reward
Loading
Loading
Make sure to use the "Vote Down" button for any spammy posts, and the "Vote Up" for interesting conversations.